User: anonymous   Login
Location: Unspecified
(0.0000°N, 0.0000°E)
Time: 20:44:23
(UTC+02:00)
Language:

Delta 168 - Orbit

View from above orbital plane
View from above orbital plane
View from above satellite
View from above satellite

Ground track
Ground track

The orbit data is extracted from the following two-line orbital elements,

1 14051U 83041B   18174.83186925 +.00000624 +00000-0 +38765-4 0  9995
2 14051 025.3334 289.4720 1094299 011.7304 350.6672 13.09138992627172
Epoch (UTC): 23 June 2018 19:57:53
Eccentricity: 0.1094299
inclination: 25.3334°
perigee height: 394 km
apogee height: 2058 km
right ascension of ascending node: 289.4720°
argument of perigee: 11.7304°
revolutions per day: 13.09138992
mean anomaly at epoch: 350.6672°
orbit number at epoch: 62717

The dashed part of the orbit path shows where the satellite is in the earth's shadow,  

DLR